THOR AGENA D R/B

Last updated on Sun Jun 21 2026 00:02:14 GMT+0000 (Coordinated Universal Time)

1 00733U 64002A 26171.08730830 .00000092 00000+0 50193-4 0 9993 2 00733 99.1153 189.9758 0032186 321.9802 37.9109 14.34066354252975
UTC large
Height (km)
Speed (km/s)
/
Latitude / Longitude
Inclination (degrees)
Orbital Period (minutes)
Azimuth
Elevation
Range (km)
Doppler Factor

Next 0 passes for location: London (51.5072 / 0.1276)

No passes found over London.
THOR AGENA D R/B